星链-30422 (STARLINK-30422 )

导读

STARLINK-30422是美国太空探索技术公司Starlink星链互联网卫星星座中的一员,于2023年9月9日发射入轨。星链星座旨在为全球提供高速低延迟宽带互联网服务,该卫星承载着星座组网扩容任务,运行在近地轨道,为全球尤其是偏远地区用户提供网络接入服务,是美国推进近地轨道卫星互联网布局的组成部分。

基本信息
目录编号:
57826
目录名称:
STARLINK-30422
国际标识:
2023-138U
轨道中心:
EARTH
卫星名称:
星链-30422
卫星全名:
星链-30422 (STARLINK-30422 )
卫星状态:
在轨 (已飞行1013 天)
发射日期:
2023-09-09 UTC
国别 :
美国 (US)
星等 :
--
轨道信息
数据来源 国际轨道数据 AOE轨道数据
星历时间 2026-06-17T06:05:13+0800
1天前
查看轨道信息
2026-06-12T19:00:00+0800
6天前
查看轨道信息
半长轴 6861.109km 6861.167km
偏心率 0.0001048 0.0001726
轨道倾角 43.006° 43.005°
近地点辐角 268.207° 285.116°
升交点赤经 33.836° 59.037°
平近点角 91.866° 348.533°
近地点 482.252km 481.845km
远地点 483.692km 484.215km
周期 94.265分钟 94.266分钟
每日圈数 15.27606 15.275867
详细信息
固有亮度:
5
最大亮度:
0.3
卫星平台:
Starlink v2.0 mini
覆盖范围:
全球
运营商:
太空探索技术公司
运营商所在国:
美国
制造商(研发单位):
太空探索技术公司
制造商所在国:
美国
使用方式:
暂无
卫星简介
星链(Starlink)计划是由太空探索技术公司(SpaceX)提出的一个巨型低轨卫星互联网星座项目,计划在2019年至2024年间在太空搭建由约1.2万颗卫星组成的“星链”网络,其中1584颗将部署在地球上空550千米处的近地轨道,并从2020年开始工作。该卫星仍在工作。
2D轨道图
3D轨道图
轨道高度分析图
轨道倾角分析图
轨道综合分析图
查看轨道综合分析图